Flag for Ireland Weather past 2 weeks in Cork, Ireland

Now
41 °F

Passing clouds.


Feels Like: 37 °F
Forecast: N/A
Wind: 6 mph from West

Location: Cork Airport

Current Time: Dec 19, 2014 at 10:10:44 PM

Latest Report: Dec 19, 2014 at 8:00 PM


Visibility: 19 mi

Pressure: 30.29 "Hg

Humidity: 85%

Dew point: 36 °F

Location of CorkLocation

Historic Weather in Cork — Graph

°F

Cork temperature yesterday

Maximum temperature yesterday: 54 °F (at 10:00 AM)
Minimum temperature yesterday: 49 °F (at 11:00 PM)
Average temperature yesterday: 53 °F

Past Weeks' High & Low Weather Summary

 TemperatureHumidityPressure
High54 °F (Dec 18, 10:00 AM)100% (Dec 6, 6:00 PM)30.47 "Hg (Dec 6, 6:00 PM)
Low33 °F (Dec 12, 9:00 AM)62% (Dec 7, 1:00 PM)29.32 "Hg (Dec 11, 11:00 PM)
Average44 °F90%29.99 "Hg
* Reported Dec 4 8:00 PM — Dec 19 8:00 PM, Cork, Weather by CustomWeather, © 2014

Note: Actual official high and low records may vary slightly from our data, if they occured in-between our weather recording intervals... More about our weather records

Advertising

Cork weather history for previous 24 hours

 ConditionsComfort  
Time TempWeatherWind HumidityBarometerVisibility
8:00 PM
Dec 19
41 °FPassing clouds.6 mph85%30.29 "Hg19 mi
7:00 PM42 °FPassing clouds.6 mph84%30.27 "Hg19 mi
6:00 PM41 °FPassing clouds.5 mph86%30.24 "Hg19 mi
5:00 PM41 °FPassing clouds.5 mph85%30.23 "Hg25 mi
4:00 PM42 °FPassing clouds.5 mph83%30.21 "Hg25 mi
3:00 PM45 °FPassing clouds.8 mph75%30.18 "Hg25 mi
2:00 PM46 °FPartly sunny.8 mph71%30.16 "Hg28 mi
1:00 PM46 °FPassing clouds.9 mph70%30.14 "Hg28 mi
12:00 PM45 °FPassing clouds.8 mph75%30.13 "Hg28 mi
11:00 AM44 °FScattered clouds.8 mph81%30.13 "Hg31 mi
10:00 AM42 °FPassing clouds.7 mph82%30.10 "Hg25 mi
9:00 AM39 °FPassing clouds.5 mph90%30.07 "Hg25 mi
8:00 AM37 °FPassing clouds.3 mph94%30.04 "Hg19 mi
7:00 AM41 °FPassing clouds.5 mph82%30.00 "Hg19 mi
6:00 AM43 °FPassing clouds.7 mph76%29.97 "Hg19 mi
5:00 AM43 °FPassing clouds.5 mph76%29.94 "Hg19 mi
4:00 AM43 °FPassing clouds.8 mph75%29.93 "Hg19 mi
2:00 AM45 °FPassing clouds.8 mph84%29.89 "Hg12 mi
1:00 AM45 °FPassing clouds.9 mph90%29.86 "Hg12 mi
12:00 AM47 °FOvercast.8 mph88%29.83 "Hg12 mi
11:00 PM
Dec 18
49 °FOvercast.8 mph90%29.81 "Hg12 mi
10:00 PM51 °FOvercast.7 mph92%29.78 "Hg12 mi
Weather by CustomWeather, © 2014

See weather overviewHow to use our weather pages